GSAT-18

Last updated on Sat Sep 12 2026 00:03:03 GMT+0000 (Coordinated Universal Time)

1 41793U 16060A 26254.59608821 -.00000093 00000+0 00000+0 0 9996 2 41793 0.0185 173.4009 0002925 302.1033 163.6809 1.00270865 36397
UTC large
Height (km)
Speed (km/s)
/
Latitude / Longitude
Inclination (degrees)
Orbital Period (minutes)
Azimuth
Elevation
Range (km)
Doppler Factor

Next 0 passes for location: London (51.5072 / 0.1276)

No passes found over London.
GSAT-18